K5BOU Weather Reports


time (UTC)temp
F
wind
direction
speed
knots
gust
knots
rain 1hr
in
rain 24hr
in
rain mn
in
humidity
%
barometer
mb
20260504151022 74 168 6.1 7.8 0.00 0.00 0.00 78 1013.9
20260504150520 75 175 3.5 7.0 0.00 0.00 0.00 77 1013.7
20260504140945 71 177 0.0 1.7 0.00 0.00 0.00 81 1013.8
20260504140442 70 170 1.7 2.6 0.00 0.00 0.00 81 1014.0
20260504130401 61 169 0.0 0.0 0.00 0.00 0.00 94 1013.5
20260504110248 55 177 0.0 0.0 0.00 0.00 0.00 99 1013.4
20260504100212 55 189 0.0 0.0 0.00 0.00 0.00 99 1013.8
20260504090134 56 188 0.0 0.0 0.00 0.00 0.00 99 1014.4
20260504081604 56 188 0.0 0.0 0.00 0.00 0.00 99 1014.2
20260504081100 56 188 0.0 0.0 0.00 0.00 0.00 99 1014.5
20260504080557 56 184 0.0 0.0 0.00 0.00 0.00 99 1014.3
20260504050410 58 188 0.0 0.0 0.00 0.00 0.00 92 1016.5
20260504045907 59 188 0.0 0.0 0.00 0.00 0.00 91 1016.6
20260504045402 59 188 0.0 0.0 0.00 0.00 0.00 91 1016.4
20260504044859 59 188 0.0 0.0 0.00 0.00 0.00 90 1016.5
20260504044356 59 188 0.0 0.0 0.00 0.00 0.00 89 1016.6
20260504043854 59 188 0.0 0.0 0.00 0.00 0.00 88 1016.6
20260504043350 60 188 0.0 0.0 0.00 0.00 0.00 87 1016.6
20260504042848 60 188 0.0 0.0 0.00 0.00 0.00 87 1016.6
20260504042344 60 188 0.0 0.0 0.00 0.00 0.00 85 1016.7
20260504041840 61 188 0.0 0.0 0.00 0.00 0.00 84 1016.7
20260504041337 61 188 0.0 0.0 0.00 0.00 0.00 82 1016.9
20260504040833 62 188 0.0 0.0 0.00 0.00 0.00 81 1016.8
20260504040331 62 188 0.0 0.0 0.00 0.00 0.00 81 1016.5
20260504035826 62 188 0.0 0.0 0.00 0.00 0.00 80 1016.7
20260504035324 63 188 0.0 0.0 0.00 0.00 0.00 80 1016.6
20260504034821 64 188 0.0 0.0 0.00 0.00 0.00 78 1016.7
20260504034319 64 188 0.0 0.0 0.00 0.00 0.00 77 1016.3
20260504033815 65 187 0.0 0.0 0.00 0.00 0.00 76 1016.4
20260504033314 65 174 0.0 0.9 0.00 0.00 0.00 75 1016.6
20260504032809 65 187 0.0 0.0 0.00 0.00 0.00 74 1016.6
20260504032307 66 188 0.0 2.6 0.00 0.00 0.00 73 1016.6
20260504031804 66 178 0.0 2.6 0.00 0.00 0.00 72 1016.6
20260504031301 66 181 0.9 1.7 0.00 0.00 0.00 72 1016.4
20260504030757 66 168 0.0 0.9 0.00 0.00 0.00 72 1016.5
20260504030254 66 154 0.9 2.6 0.00 0.00 0.00 72 1016.4
20260504025750 66 171 0.9 1.7 0.00 0.00 0.00 72 1016.6
20260504025247 67 182 0.9 2.6 0.00 0.00 0.00 72 1016.4
20260504024744 67 186 0.9 0.9 0.00 0.00 0.00 71 1016.6
20260504024241 67 185 0.9 1.7 0.00 0.00 0.00 70 1016.4
20260504023738 68 148 0.0 1.7 0.00 0.00 0.00 69 1016.1
20260504023234 68 171 0.9 1.7 0.00 0.00 0.00 68 1016.2
20260504022730 68 165 0.9 0.9 0.00 0.00 0.00 68 1016.2
20260504022226 68 157 0.9 2.6 0.00 0.00 0.00 67 1016.1
20260504021724 68 174 0.9 1.7 0.00 0.00 0.00 67 1016.0
20260504021221 68 184 0.9 2.6 0.00 0.00 0.00 67 1016.0
20260504020717 69 194 0.9 4.3 0.00 0.00 0.00 66 1016.1
20260504020214 68 165 0.9 2.6 0.00 0.00 0.00 66 1016.0
20260504015710 68 164 0.9 2.6 0.00 0.00 0.00 66 1016.0
20260504015207 69 150 0.9 1.7 0.00 0.00 0.00 67 1015.9
20260504014702 69 184 0.0 1.7 0.00 0.00 0.00 64 1015.9
20260504014200 70 172 0.0 2.6 0.00 0.00 0.00 63 1015.9
20260504013657 70 175 0.0 0.9 0.00 0.00 0.00 62 1015.8
20260504013154 70 156 2.6 4.3 0.00 0.00 0.00 61 1015.7
20260504012651 71 128 1.7 5.2 0.00 0.00 0.00 61 1015.7
20260504012149 71 159 0.0 1.7 0.00 0.00 0.00 61 1015.6
20260504011646 71 159 0.9 1.7 0.00 0.00 0.00 60 1015.9
20260504011142 71 174 1.7 5.2 0.00 0.00 0.00 59 1015.8
20260504010638 72 147 2.6 5.2 0.00 0.00 0.00 58 1015.7
20260504010134 72 142 0.9 6.1 0.00 0.00 0.00 58 1015.9
20260504005631 72 134 2.6 5.2 0.00 0.00 0.00 57 1015.7
20260504005128 73 160 0.0 4.3 0.00 0.00 0.00 58 1015.8
20260504004626 73 166 0.9 1.7 0.00 0.00 0.00 57 1015.7
20260504004123 73 177 0.9 2.6 0.00 0.00 0.00 56 1015.7
20260504003619 74 163 0.9 2.6 0.00 0.00 0.00 56 1015.7
20260504003116 74 142 0.0 2.6 0.00 0.00 0.00 55 1015.7
20260504002613 74 147 0.9 4.3 0.00 0.00 0.00 55 1015.7
20260504002110 74 187 1.7 5.2 0.00 0.00 0.00 54 1015.8
20260504001608 75 156 0.0 4.3 0.00 0.00 0.00 54 1015.8
20260504001103 75 173 0.0 2.6 0.00 0.00 0.00 53 1015.5
20260504000601 75 201 1.7 4.3 0.00 0.00 0.00 53 1015.4
20260504000059 75 173 0.0 2.6 0.00 0.00 0.00 53 1015.6
20260503235556 75 155 3.5 7.0 0.00 0.00 0.00 51 1015.7
20260503235053 76 175 1.7 6.1 0.00 0.00 0.00 51 1015.6
20260503234551 77 166 0.9 5.2 0.00 0.00 0.00 51 1015.8
20260503234049 77 103 2.6 5.2 0.00 0.00 0.00 52 1015.9
20260503233545 77 160 2.6 7.8 0.00 0.00 0.00 51 1015.8
20260503233041 78 135 5.2 7.8 0.00 0.00 0.00 50 1015.7
20260503232539 78 199 4.3 6.1 0.00 0.00 0.00 50 1015.8
20260503232036 78 160 2.6 5.2 0.00 0.00 0.00 50 1015.9
20260503231534 78 223 5.2 7.0 0.00 0.00 0.00 49 1015.8
20260503231030 78 163 0.9 2.6 0.00 0.00 0.00 49 1015.9
20260503230527 79 176 4.3 6.1 0.00 0.00 0.00 47 1015.9
20260503230024 80 167 1.7 4.3 0.00 0.00 0.00 45 1015.9
20260503225521 79 163 3.5 5.2 0.00 0.00 0.00 46 1015.9
20260503225016 79 200 3.5 7.0 0.00 0.00 0.00 44 1015.9
20260503224514 79 151 2.6 12.2 0.00 0.00 0.00 45 1015.8
20260503224011 80 147 5.2 6.1 0.00 0.00 0.00 45 1016.3
20260503223509 81 191 7.8 14.8 0.00 0.00 0.00 45 1016.4
20260503223004 81 191 7.8 14.8 0.00 0.00 0.00 45 1016.2
20260503222503 81 166 4.3 6.1 0.00 0.00 0.00 44 1016.2
20260503222001 81 166 4.3 6.1 0.00 0.00 0.00 44 1016.4
20260503221459 80 202 1.7 5.2 0.00 0.00 0.00 42 1016.7
20260503220955 80 202 1.7 5.2 0.00 0.00 0.00 42 1016.6
20260503220452 79 205 1.7 6.1 0.00 0.00 0.00 41 1016.6
20260503215949 80 210 3.5 11.3 0.00 0.00 0.00 40 1016.5
20260503215445 80 147 4.3 6.1 0.00 0.00 0.00 41 1016.5
20260503214943 80 171 6.1 7.8 0.00 0.00 0.00 38 1016.6
20260503214441 80 171 6.1 7.8 0.00 0.00 0.00 38 1016.5
20260503213938 81 196 0.9 0.9 0.00 0.00 0.00 38 1016.8
20260503213436 81 196 0.9 0.9 0.00 0.00 0.00 38 1016.7
20260503212932 81 196 0.9 2.6 0.00 0.00 0.00 38 1017.0
20260503212430 81 156 2.6 4.3 0.00 0.00 0.00 40 1017.1
20260503211927 0 0.0 0.0 0.00 0.00 0.00 1016.9
20260503211424 81 155 2.6 6.1 0.00 0.00 0.00 43 1017.2
20260503210919 81 155 2.6 6.1 0.00 0.00 0.00 43 1017.2
20260503210417 81 155 2.6 6.1 0.00 0.00 0.00 43 1017.3
20260503205916 81 155 2.6 6.1 0.00 0.00 0.00 43 1017.4
20260503205414 81 155 2.6 6.1 0.00 0.00 0.00 43 1017.4
20260503204910 81 155 2.6 6.1 0.00 0.00 0.00 43 1017.4
20260503204408 81 155 2.6 6.1 0.00 0.00 0.00 43 1017.4
20260503203905 81 155 2.6 6.1 0.00 0.00 0.00 43 1017.3
20260503203402 81 155 2.6 6.1 0.00 0.00 0.00 43 1017.5
20260503202858 81 155 2.6 6.1 0.00 0.00 0.00 43 1017.7
20260503202357 81 155 2.6 6.1 0.00 0.00 0.00 43 1017.7
20260503201855 81 155 2.6 6.1 0.00 0.00 0.00 43 1017.9
20260503201352 82 197 3.5 6.1 0.00 0.00 0.00 41 1017.9
20260503200849 82 197 3.5 6.1 0.00 0.00 0.00 41 1018.0
20260503200345 81 206 1.7 1.7 0.00 0.00 0.00 41 1018.2
20260503195842 81 206 1.7 1.7 0.00 0.00 0.00 41 1018.2
20260503195338 80 168 0.9 1.7 0.00 0.00 0.00 47 1018.5
20260503194836 80 156 4.3 6.1 0.00 0.00 0.00 43 1018.3
20260503194332 80 156 4.3 6.1 0.00 0.00 0.00 43 1018.5
20260503193828 80 135 3.5 6.1 0.00 0.00 0.00 45 1018.4
20260503193324 80 193 5.2 7.0 0.00 0.00 0.00 45 1018.4
20260503192820 80 193 5.2 7.0 0.00 0.00 0.00 45 1018.7
20260503192316 80 162 4.3 7.0 0.00 0.00 0.00 44 1018.7
20260503191812 80 187 2.6 4.3 0.00 0.00 0.00 48 1018.8
20260503191309 80 160 6.1 7.8 0.00 0.00 0.00 43 1018.7
20260503190806 80 160 6.1 7.8 0.00 0.00 0.00 43 1019.0
20260503190303 80 160 6.1 7.8 0.00 0.00 0.00 43 1019.1
20260503185800 80 183 2.6 4.3 0.00 0.00 0.00 46 1019.1
20260503185256 80 140 1.7 2.6 0.00 0.00 0.00 44 1019.1
20260503184755 80 140 1.7 2.6 0.00 0.00 0.00 44 1019.2
20260503184252 80 185 3.5 5.2 0.00 0.00 0.00 41 1019.3
20260503183748 80 185 3.5 5.2 0.00 0.00 0.00 41 1019.4
20260503183246 80 185 3.5 5.2 0.00 0.00 0.00 41 1019.5
20260503182743 80 171 2.6 4.3 0.00 0.00 0.00 43 1019.8
20260503182242 0 0.0 0.0 0.00 0.00 0.00 1019.5
20260503181739 0 0.0 0.0 0.00 0.00 0.00 1019.8
20260503181236 0 0.0 0.0 0.00 0.00 0.00 1019.8
20260503180732 78 155 5.2 7.0 0.00 0.00 0.00 48 1019.9
20260503180230 78 155 5.2 7.0 0.00 0.00 0.00 48 1019.9
20260503175726 78 155 5.2 7.0 0.00 0.00 0.00 48 1020.0
20260503175225 78 155 5.2 7.0 0.00 0.00 0.00 48 1020.2
20260503174720 78 155 5.2 7.0 0.00 0.00 0.00 48 1020.4
20260503174219 78 155 5.2 7.0 0.00 0.00 0.00 48 1020.2
20260503173713 78 155 5.2 7.0 0.00 0.00 0.00 48 1020.5
20260503173210 78 155 5.2 7.0 0.00 0.00 0.00 48 1020.4
20260503172707 78 155 5.2 7.0 0.00 0.00 0.00 48 1020.5
20260503172204 78 155 5.2 7.0 0.00 0.00 0.00 48 1020.5
20260503171700 78 155 5.2 7.0 0.00 0.00 0.00 48 1020.7
20260503171158 78 155 5.2 7.0 0.00 0.00 0.00 48 1020.9
20260503170654 77 159 0.9 0.9 0.00 0.00 0.00 48 1020.9
20260503170151 77 140 4.3 6.1 0.00 0.00 0.00 49 1020.8